Theta_e
316 316 316 315 314 314 314 314 314 314 314 314 315 315 315 316 316 316 316 316 316 317 317 317 318 318 318 317 318 319 319 319 319 320 321 321 322 323 324 324 324 324 324 325 326 327 328 329 329 329 329 330 330 330 330 330 331 331 330 331 331 330 330 330 330 329 329 328 329 329 329 329 329 328 328 328 327 327 327 327 327 327 327 327 326
315 315 315 314 313 313 314 314 314 314 314 314 315 315 315 315 315 315 316 316 316 317 317 317 317 317 316 316 316 317 317 318 318 319 319 320 321 322 323 323 323 323 324 325 325 326 328 329 329 329 329 329 330 330 330 330 331 331 331 331 331 330 330 330 330 330 330 329 328 329 329 328 328 328 328 328 327 327 327 327 327 327 327 327 325
314 314 314 313 312 313 314 313 313 313 314 314 314 314 314 314 314 315 315 315 315 316 315 315 315 315 315 315 315 315 316 316 316 317 317 318 319 320 321 322 323 323 324 325 326 326 327 328 328 328 329 329 329 330 330 330 330 331 331 330 330 329 329 329 330 330 330 329 329 328 328 328 328 328 328 327 327 327 328 327 327 327 327 327 326
313 313 313 312 312 313 313 312 312 313 313 313 313 313 313 313 314 314 314 314 314 314 315 315 315 315 315 314 314 314 315 315 315 315 315 316 317 318 319 321 322 323 324 325 326 327 327 327 327 328 328 328 328 329 329 330 330 330 330 330 330 329 329 329 329 330 330 330 329 329 328 328 328 328 328 328 327 328 328 327 327 328 327 327 326
312 312 311 310 311 312 312 311 312 312 312 312 312 312 312 312 312 313 313 313 314 314 314 314 314 314 314 315 315 315 315 315 315 316 316 316 317 317 319 320 321 322 324 325 326 327 327 327 327 328 328 328 328 328 328 329 330 330 329 329 330 330 329 329 329 330 330 330 329 329 329 328 328 328 328 328 328 328 328 327 327 328 327 326 326
311 310 309 309 309 310 310 310 311 311 311 311 311 311 311 311 311 311 312 312 312 312 313 313 313 313 313 313 313 314 314 315 315 316 316 317 318 318 319 320 320 321 322 323 324 325 326 326 327 327 328 328 328 328 327 328 329 329 329 329 330 330 330 329 329 330 330 330 329 329 328 328 328 328 328 328 328 328 328 327 327 327 327 326 325
309 309 308 308 308 308 308 309 309 310 310 310 310 310 310 310 310 310 310 311 311 311 311 311 311 311 311 311 312 312 312 313 314 315 315 316 317 317 318 319 319 320 321 322 323 323 325 326 326 327 328 328 328 328 327 327 328 329 329 329 330 330 329 329 329 329 329 329 329 328 328 328 327 327 327 327 328 328 328 328 327 326 326 325 324
308 308 307 307 306 306 306 307 307 308 308 308 308 309 309 309 309 309 309 309 310 310 310 310 310 310 310 310 310 310 311 311 312 313 314 314 316 316 317 318 318 319 319 320 321 322 323 324 326 327 328 328 328 328 327 327 327 327 328 329 329 330 329 329 329 329 329 330 329 328 328 328 327 327 327 327 328 328 328 328 327 326 327 325 322
307 307 306 306 306 306 306 306 306 306 306 306 307 307 307 307 308 308 308 308 308 308 308 308 308 308 308 309 309 309 309 310 310 311 312 313 314 315 316 317 318 319 319 320 320 321 322 323 325 326 327 327 327 328 328 327 327 328 328 328 329 329 328 328 328 328 328 329 329 329 328 327 327 326 327 327 327 327 328 328 327 326 326 325 322
306 306 306 305 305 305 305 305 305 305 305 305 305 305 305 305 306 306 306 305 306 306 306 306 306 307 307 307 308 308 308 309 309 309 310 312 313 315 316 317 318 319 319 320 320 321 321 323 324 325 326 327 327 327 327 328 328 328 328 328 328 328 328 328 328 328 327 328 329 329 328 327 327 327 327 327 326 327 327 327 327 326 326 325 322
304 304 304 303 303 303 303 303 303 303 303 303 303 303 304 304 304 304 304 304 304 304 304 305 305 305 306 306 307 307 307 308 308 309 310 311 312 314 315 316 316 317 319 319 320 321 321 322 323 324 325 326 327 327 327 327 327 327 328 328 328 328 329 329 329 328 328 328 328 329 328 327 327 327 327 326 327 327 327 327 327 327 326 325 323
303 302 302 301 301 301 302 302 301 301 301 301 301 301 302 302 302 302 302 302 302 302 303 303 304 304 305 305 306 306 306 307 307 308 309 310 312 313 314 315 315 317 318 318 319 320 321 322 322 323 325 325 326 326 327 326 326 326 327 327 328 328 329 329 329 329 328 328 328 328 328 327 328 328 327 327 327 327 326 327 327 327 326 326 324
301 300 300 300 300 301 301 300 300 300 299 299 300 300 300 300 300 300 300 300 301 301 301 302 302 303 303 304 304 305 306 306 306 307 308 309 311 312 313 314 315 316 317 317 318 319 319 320 321 322 323 324 325 325 326 326 326 326 326 327 328 328 328 329 329 329 329 329 328 328 328 327 327 327 327 327 327 327 327 327 327 326 326 326 325
299 299 299 299 299 299 299 299 299 299 299 299 299 298 298 298 298 299 299 299 300 300 300 301 301 302 302 302 303 303 304 305 305 306 307 308 309 311 312 313 314 314 315 315 316 317 318 319 320 321 321 323 323 324 325 326 327 326 326 327 327 327 328 328 329 329 329 329 329 328 328 327 327 326 326 327 327 327 327 326 327 326 326 326 325
298 298 298 298 298 298 298 298 298 298 298 298 298 298 298 297 297 298 298 298 299 299 299 300 300 301 301 301 302 302 303 303 304 305 306 306 308 309 310 311 312 312 313 313 314 315 316 317 319 320 321 321 322 323 324 325 326 326 326 326 326 326 326 327 328 328 328 328 328 328 327 327 327 327 327 327 327 327 327 326 327 326 326 326 325
298 298 297 297 297 297 297 297 297 297 297 297 297 297 297 297 297 297 297 297 298 298 299 299 300 300 300 301 301 301 301 302 302 303 304 305 306 307 308 309 309 310 310 311 312 313 314 315 317 318 319 321 322 323 324 325 326 326 325 325 324 324 325 326 327 327 327 327 327 327 327 326 327 327 327 327 327 327 326 326 325 325 324 324 323
298 297 297 297 296 296 296 296 296 296 296 296 296 296 296 296 296 296 296 296 297 297 298 299 299 299 300 300 300 300 300 301 301 302 303 304 305 305 306 306 307 307 308 309 309 310 311 312 314 316 317 319 321 322 324 325 326 326 325 325 324 324 324 325 325 326 326 327 327 327 327 327 327 327 327 327 326 326 326 325 325 324 324 323 322
298 297 297 297 296 296 296 296 296 296 296 295 295 295 296 296 296 296 296 296 296 296 297 297 298 298 299 299 299 300 300 300 300 300 301 302 303 303 304 304 305 305 305 306 307 308 309 310 311 313 316 317 319 321 323 324 325 325 325 325 325 325 324 325 325 325 326 326 327 327 327 327 327 328 327 326 326 325 325 325 325 325 324 323 322
298 297 297 297 296 295 295 295 295 295 295 295 295 295 295 295 296 296 296 295 295 295 295 296 296 297 298 298 299 299 299 299 299 299 299 300 300 301 301 302 303 303 303 304 305 306 307 308 309 311 313 315 317 320 322 324 324 325 325 324 324 324 324 325 325 325 325 325 325 326 326 326 327 327 327 326 326 325 325 325 324 324 324 323 323
298 298 297 297 296 295 295 295 295 295 294 294 294 294 294 295 295 296 296 295 295 295 295 295 295 295 296 297 297 298 298 298 298 298 298 299 299 299 300 300 301 301 302 302 303 304 305 306 307 309 311 312 314 317 321 323 323 324 323 322 322 323 323 323 324 323 323 323 323 324 324 324 325 325 325 325 325 325 324 324 324 324 324 323 322
298 298 297 297 296 296 295 295 295 294 294 294 294 294 294 294 294 295 295 295 295 295 295 295 295 295 295 295 296 296 297 297 297 297 297 298 298 298 298 299 299 300 301 301 302 303 303 304 305 306 307 309 312 315 318 321 322 322 321 321 321 321 321 321 321 321 321 321 321 322 322 321 321 322 322 323 324 324 324 324 323 322 322 322 322
298 298 297 297 296 296 296 295 295 294 294 294 294 294 293 293 294 294 295 295 295 295 295 295 295 295 295 295 295 295 295 295 296 296 296 296 296 297 297 298 298 299 300 301 301 302 302 302 303 304 306 307 310 312 316 319 320 321 320 319 320 319 319 319 318 319 319 319 320 321 320 319 319 320 320 320 321 322 322 323 322 322 321 321 321
298 298 297 297 296 296 295 295 295 294 295 295 294 294 293 293 293 294 294 294 295 295 295 295 295 295 295 295 295 295 295 295 295 295 295 295 296 296 297 297 297 298 299 300 301 301 301 301 302 303 304 306 307 310 313 315 317 318 316 317 318 317 317 317 317 317 318 318 318 319 318 318 318 318 318 319 319 320 320 321 321 321 320 320 320
298 298 297 297 296 296 295 295 295 295 295 295 294 294 293 293 293 293 294 294 294 294 294 294 294 294 294 294 294 295 295 295 295 295 295 295 296 296 296 297 297 297 298 299 300 300 301 301 301 302 303 304 305 307 309 310 311 312 312 313 315 315 315 315 316 316 316 317 316 317 317 316 317 317 317 317 317 318 318 318 319 319 319 319 319
298 298 297 297 296 296 296 295 295 295 295 295 295 294 293 293 293 293 293 293 293 293 293 293 293 293 294 294 294 294 294 295 295 295 295 295 295 296 296 296 296 297 297 298 298 299 300 301 301 301 302 303 303 305 306 306 306 308 309 309 311 312 313 313 314 314 315 314 314 315 315 314 314 315 315 316 316 316 316 316 316 317 317 318 318
298 298 297 297 297 296 296 296 295 295 295 295 295 294 294 293 293 293 293 293 293 293 292 292 292 293 293 293 293 294 294 294 294 295 295 295 295 296 296 296 296 297 297 297 298 298 299 300 300 300 301 301 302 303 303 303 304 305 306 306 307 308 309 310 312 312 312 311 311 311 311 310 311 311 312 314 314 314 313 313 313 314 314 315 316
298 298 297 297 297 296 296 296 296 295 295 295 295 295 294 294 293 293 293 293 293 293 292 292 292 292 292 292 293 293 293 294 294 294 294 295 295 295 296 296 296 296 297 297 297 297 297 298 299 300 300 301 301 301 302 302 303 303 303 303 303 303 304 306 307 307 307 307 307 307 306 307 308 308 309 310 310 310 309 310 311 311 310 312 313
298 298 297 297 297 296 296 296 296 295 295 295 295 295 295 294 294 293 293 293 293 293 293 292 292 292 292 292 292 292 293 293 294 294 294 294 295 295 295 296 296 296 296 296 297 297 297 297 298 298 299 299 300 300 301 301 301 301 301 301 301 301 302 302 303 303 303 303 304 304 304 305 305 305 306 306 306 305 305 306 307 307 307 309 310
298 297 297 297 297 297 296 296 296 295 295 295 295 295 295 295 294 294 294 294 293 293 293 294 293 293 293 292 292 292 293 293 294 294 294 294 294 295 295 295 296 296 296 296 296 297 297 297 297 297 297 297 298 298 299 299 300 300 300 300 300 301 301 301 301 301 301 302 302 302 302 303 303 303 304 304 303 303 303 304 304 304 305 306 306
298 297 297 297 297 297 297 296 296 296 295 295 295 295 295 295 295 295 295 294 294 294 294 294 294 294 294 293 292 292 292 293 293 293 294 294 294 294 295 295 295 295 296 296 296 296 296 296 296 296 296 296 296 297 297 297 298 298 299 299 299 300 300 300 300 300 300 301 301 301 301 302 302 302 303 303 303 303 303 303 303 303 303 304 303
297 297 297 298 297 297 297 296 296 296 296 296 295 295 295 295 295 295 295 295 295 295 295 295 295 294 294 294 293 292 292 292 292 293 293 294 294 294 294 294 294 295 295 296 296 296 296 296 296 296 296 296 296 296 296 297 297 297 298 298 298 298 299 299 299 299 299 300 300 300 301 301 301 301 302 302 302 302 303 303 303 303 303 303 302
297 297 297 298 297 297 297 297 296 296 296 296 296 296 295 295 295 295 296 296 296 295 295 295 295 295 295 294 294 293 292 291 291 292 293 293 293 293 294 294 294 294 294 295 295 295 295 295 295 295 295 296 296 296 296 296 297 297 297 297 297 297 298 298 298 299 299 299 299 300 300 300 300 300 301 301 301 301 301 301 301 302 302 302 302
297 297 297 298 297 297 297 297 296 296 296 296 296 296 296 296 296 295 296 296 296 296 296 295 295 295 295 295 294 294 293 291 291 291 292 293 293 293 293 294 294 294 294 294 294 294 294 294 294 294 295 295 295 296 296 296 296 296 296 297 297 297 297 297 298 298 298 298 299 299 299 299 299 300 300 300 300 299 299 299 299 299 300 300 300
297 297 297 297 297 297 297 297 297 296 296 296 297 296 296 296 296 296 296 296 296 296 296 296 296 295 295 295 295 294 294 292 291 291 291 292 293 293 293 294 294 294 294 294 294 294 294 294 294 294 294 294 295 295 295 296 296 296 296 296 296 296 296 297 297 297 297 297 298 298 298 299 299 300 300 300 299 299 299 299 299 299 299 299 299
297 297 297 297 297 297 297 297 297 297 296 296 297 297 296 296 296 296 296 295 296 296 296 296 296 296 296 295 295 295 294 294 292 291 291 292 292 293 293 294 293 294 294 294 294 294 294 294 294 294 294 294 294 294 295 295 295 295 295 295 295 295 296 296 296 295 295 296 296 297 298 298 298 299 299 299 299 299 298 298 298 299 299 298 299
298 298 297 297 297 297 297 297 297 297 296 297 297 297 297 296 296 296 296 296 296 296 296 296 296 296 296 296 295 295 295 294 293 292 290 291 292 293 293 293 293 293 294 294 294 294 294 294 294 293 293 293 293 293 294 294 294 294 295 295 295 295 295 295 295 295 294 294 294 295 296 297 298 298 299 299 299 299 299 299 298 298 298 298 298
298 298 297 297 297 297 297 297 297 296 296 297 297 297 297 297 296 296 296 296 296 296 296 296 296 296 296 296 296 295 295 294 294 293 291 290 291 292 293 293 293 293 293 294 294 294 293 293 293 293 293 293 293 293 293 293 294 294 294 294 294 294 294 294 294 294 294 294 294 294 294 295 296 297 298 298 298 299 299 299 299 298 298 298 298
298 297 297 298 297 297 297 297 296 296 297 297 297 297 297 296 296 296 296 296 296 296 297 296 296 296 296 296 296 295 295 295 294 293 293 291 291 291 292 293 293 293 293 293 293 293 293 293 293 293 293 293 293 293 293 293 293 293 293 294 294 294 294 294 294 294 294 294 294 293 293 293 294 294 295 296 297 298 298 298 298 298 298 298 298
297 297 297 297 298 297 297 297 296 296 296 297 297 297 297 296 296 296 296 296 296 296 296 296 296 296 296 296 296 296 295 295 295 294 294 293 291 290 291 292 293 293 293 293 293 293 293 293 293 293 293 293 293 293 293 293 292 292 292 293 293 294 294 293 293 293 293 293 293 293 293 293 293 293 293 294 295 295 296 296 297 297 297 297 297
297 297 297 297 297 297 297 297 296 296 296 297 297 297 296 296 295 296 296 295 295 295 295 296 296 296 296 296 296 296 295 295 295 294 294 294 292 291 290 291 292 293 293 293 293 293 293 293 293 293 293 293 293 293 293 293 292 292 292 292 292 293 293 293 293 293 293 293 293 293 293 293 293 293 293 293 293 294 294 295 295 295 295 296 296
297 297 297 297 297 297 297 296 296 296 296 297 297 296 296 295 295 295 296 296 295 295 295 295 295 296 296 296 296 296 295 295 295 295 294 294 293 292 290 290 291 292 293 294 294 293 293 293 293 293 292 292 292 293 293 292 292 292 292 292 292 292 292 292 292 292 292 292 293 293 293 293 293 293 293 293 293 293 293 294 294 294 294 294 294
297 297 297 297 296 296 296 296 296 295 295 296 296 296 295 295 295 295 295 296 296 295 295 295 295 295 295 295 295 296 296 295 295 295 294 294 293 292 291 290 290 290 292 293 293 293 293 293 293 293 293 293 293 293 292 291 291 291 291 292 292 292 292 292 292 292 292 292 292 292 292 292 292 293 293 293 293 293 293 293 293 293 294 294 294
297 297 296 296 296 296 296 296 296 295 294 295 295 295 295 295 295 295 295 295 296 295 295 295 295 295 295 295 295 295 296 295 295 295 294 294 293 293 293 292 291 290 290 291 291 292 293 293 293 293 293 293 293 292 290 289 289 289 290 290 290 290 291 292 292 292 292 292 292 292 292 292 291 291 292 292 293 293 293 293 292 293 293 293 294
296 296 296 296 295 295 295 296 295 295 295 295 295 295 295 295 295 294 294 295 295 295 295 295 295 294 294 294 294 295 295 295 295 295 294 294 293 293 293 293 292 291 290 290 290 290 291 292 293 292 292 292 291 290 289 289 289 289 289 290 290 290 290 291 291 291 291 291 291 291 292 292 292 291 291 291 291 292 292 293 293 292 292 293 293
296 296 296 296 295 295 296 296 295 295 295 295 295 295 295 294 294 294 294 294 295 295 295 294 294 294 294 294 294 294 294 294 294 295 295 294 294 293 293 293 293 292 291 291 290 290 290 290 291 291 290 290 289 289 289 289 290 290 290 290 290 290 290 290 290 290 290 290 291 291 291 291 291 291 290 290 290 291 291 292 292 292 292 292 292
296 296 296 296 296 296 296 296 296 296 296 295 295 295 295 294 294 294 293 293 294 295 294 294 294 294 293 293 293 293 293 293 294 294 294 294 294 294 293 293 293 293 293 292 292 291 290 290 290 289 289 289 289 289 289 289 289 289 289 289 289 289 289 289 289 289 289 289 289 289 289 289 289 289 289 289 289 290 290 291 291 291 292 292 292
296 296 296 296 296 296 296 296 296 296 296 295 295 295 295 295 295 295 294 293 293 294 294 294 293 292 292 292 292 291 292 292 292 293 293 294 294 294 294 293 293 293 293 293 293 292 291 290 290 289 289 289 289 289 289 289 289 289 289 289 289 288 288 288 288 287 287 288 288 287 287 288 288 287 287 288 288 289 289 289 290 290 290 291 291
296 296 296 296 296 296 296 296 296 296 296 295 295 295 295 295 295 295 295 294 293 293 292 292 292 291 290 290 290 290 290 291 291 291 292 292 293 293 294 293 293 293 293 293 293 293 293 292 291 290 290 289 289 289 289 289 289 289 289 289 289 289 288 288 287 287 287 287 287 287 287 287 287 287 287 287 287 288 288 288 289 289 289 289 290
296 296 297 297 297 296 296 296 296 296 296 295 295 295 295 295 295 295 294 294 294 293 292 291 291 291 290 290 290 290 290 290 290 290 290 291 291 292 293 293 293 293 293 293 293 293 293 293 292 291 290 290 289 289 289 289 289 289 289 289 289 289 288 288 288 287 287 286 286 286 287 286 286 286 286 287 287 287 287 288 288 288 288 288 288
297 297 297 297 297 296 296 296 296 296 296 295 295 295 295 295 295 294 294 294 294 294 293 291 291 291 291 290 290 290 290 290 290 290 290 290 290 291 291 292 292 293 293 293 293 293 293 293 293 292 292 291 290 290 290 290 290 290 290 290 290 289 289 289 288 288 287 287 286 286 286 286 286 286 286 286 286 286 286 287 287 288 288 288 288
297 297 297 297 296 296 296 296 296 296 296 296 295 295 295 295 295 294 294 294 294 294 294 293 293 293 292 291 291 291 290 290 290 290 290 290 290 290 290 290 291 291 292 293 293 293 293 293 293 293 293 292 292 291 291 291 291 291 291 291 291 291 290 290 289 289 288 288 287 287 286 286 286 286 286 286 286 286 286 286 286 286 287 287 287
Wind_Speed
3 4 5 6 5 3 2 1 2 3 3 4 4 5 5 6 8 9 11 12 14 15 17 18 19 19 20 19 19 19 20 21 21 22 22 23 22 22 22 22 23 24 24 22 20 20 20 21 22 22 22 23 22 22 23 24 25 27 28 29 30 30 30 30 32 33 32 31 29 26 25 27 29 30 30 31 32 32 32 31 30 29 28 28 28
3 5 7 6 4 1 1 3 4 5 5 5 5 5 6 7 8 9 10 10 11 12 14 16 17 19 19 19 18 19 21 22 22 22 23 23 22 22 22 22 23 25 25 24 23 22 21 21 23 22 21 21 22 22 23 23 24 26 27 28 30 30 30 30 31 32 32 31 30 28 27 26 28 29 30 31 33 33 34 33 31 30 29 29 29
3 5 7 6 3 1 3 5 6 6 6 6 6 7 8 9 10 11 11 11 12 12 13 14 15 17 18 19 19 20 22 23 24 24 24 23 23 22 22 23 24 25 24 25 24 24 24 23 23 23 22 21 22 22 24 24 25 25 26 27 28 28 28 29 29 31 32 31 30 29 29 28 28 28 29 31 32 33 35 35 33 32 31 30 30
4 6 7 6 3 4 6 7 7 7 7 7 8 9 10 10 11 12 12 13 13 14 14 14 15 16 16 17 18 20 21 22 23 24 23 24 24 23 22 23 24 25 25 25 24 25 25 25 25 23 22 23 23 23 23 24 25 26 26 25 26 26 26 27 27 28 30 30 30 30 30 30 29 28 29 31 32 33 34 35 34 33 32 31 31
5 6 6 5 5 8 9 8 8 8 8 9 9 10 10 11 11 12 12 13 14 14 15 15 16 16 17 17 18 19 21 22 23 23 22 22 22 23 23 23 24 25 26 26 26 25 24 25 25 24 22 23 25 23 22 22 24 25 26 26 26 25 25 26 26 27 29 30 31 31 30 31 31 29 30 32 34 33 32 32 35 36 34 32 31
4 5 4 5 9 10 10 9 8 8 9 9 10 9 10 10 11 11 12 13 13 14 15 15 16 17 18 18 18 19 21 22 23 23 22 21 20 20 21 23 24 25 26 26 26 26 24 23 23 24 23 22 23 23 22 21 22 23 25 26 26 26 26 26 27 28 29 30 31 31 31 31 32 32 32 33 34 34 32 32 35 36 33 31 31
2 4 5 8 10 11 10 9 9 9 9 9 9 9 10 10 11 12 12 13 13 13 14 15 16 17 18 18 19 20 21 22 23 23 23 22 21 21 20 21 23 24 25 26 26 25 24 23 22 22 23 22 22 23 22 21 22 23 23 23 23 25 27 27 27 29 30 30 32 32 31 31 32 34 33 32 33 34 32 33 36 36 34 32 33
3 6 8 10 11 11 10 9 9 9 9 10 10 10 11 11 12 13 13 14 14 15 15 15 16 17 17 18 19 20 21 23 24 26 26 25 24 23 23 22 22 23 23 24 25 23 23 23 21 21 22 22 22 22 22 22 22 23 23 22 22 23 26 26 27 29 30 30 31 32 32 32 32 33 33 33 34 35 34 34 35 36 37 36 34
6 8 10 11 11 10 9 10 10 10 10 11 11 11 11 12 12 13 14 15 15 16 16 16 16 16 17 18 18 20 21 22 24 26 28 27 26 25 25 24 23 23 23 22 23 23 22 22 21 20 20 21 22 22 23 23 23 24 24 23 22 23 25 26 27 28 30 31 31 31 33 35 35 35 35 35 36 35 35 35 34 35 37 37 35
8 9 9 10 9 9 9 10 10 11 11 12 11 12 12 12 13 14 15 16 16 17 17 17 18 17 17 18 18 19 20 21 23 25 26 27 26 24 24 25 24 24 24 23 22 23 23 22 21 20 19 20 21 23 23 23 23 24 24 23 22 22 23 24 26 27 29 31 31 32 35 37 37 36 35 35 34 34 35 36 35 35 37 38 37
10 10 9 9 9 9 10 11 11 12 12 13 13 13 13 13 14 15 16 17 18 18 19 19 20 20 19 19 19 19 19 20 22 23 24 26 26 23 22 23 24 25 25 25 24 24 23 23 22 20 19 19 20 22 23 23 22 22 22 22 21 21 21 22 24 25 27 29 31 32 36 37 36 35 34 34 35 35 35 36 37 38 39 40 41
12 11 10 10 9 10 11 11 12 13 13 14 14 14 14 14 15 16 17 19 19 20 20 21 21 21 20 20 20 19 19 20 21 22 24 25 25 23 22 22 23 24 25 26 26 26 25 25 23 21 19 19 19 21 22 24 23 21 21 21 22 22 23 22 23 25 27 28 30 32 35 35 34 35 36 36 36 37 37 38 40 40 40 43 44
14 13 12 11 11 11 12 12 13 14 14 14 14 14 15 15 16 18 18 19 19 20 21 22 22 22 22 22 22 21 20 20 21 22 24 24 24 22 21 20 21 22 24 25 25 26 26 26 25 23 21 20 19 20 21 24 24 22 21 22 23 24 24 24 24 25 26 27 29 32 33 32 32 33 34 35 37 38 39 40 41 41 42 44 44
17 16 15 14 14 13 13 13 14 14 13 13 13 14 15 16 17 18 18 19 20 21 22 23 23 24 25 25 24 23 22 22 22 22 23 24 24 22 20 20 21 21 23 24 24 24 24 25 25 25 23 22 20 20 21 23 24 23 22 21 21 23 25 26 25 25 26 27 29 31 30 30 30 29 30 33 38 40 40 40 41 42 43 43 43
19 19 18 17 15 14 14 14 14 14 14 14 14 14 15 16 17 18 18 19 20 21 22 23 24 25 26 27 27 27 27 26 25 24 24 25 24 23 21 21 21 22 23 24 25 25 25 25 24 25 25 25 23 21 20 22 23 23 23 22 21 21 23 24 25 26 26 27 28 28 28 28 28 28 28 32 36 39 39 39 40 41 42 42 43
21 20 20 19 17 15 14 14 14 15 15 14 14 15 15 15 16 17 18 19 20 21 23 23 24 25 26 28 29 30 30 30 29 27 26 25 25 25 25 24 24 24 24 25 25 26 26 26 25 25 25 25 25 24 21 21 22 22 23 24 23 21 21 21 22 25 26 27 27 27 26 27 28 29 29 30 32 34 38 40 40 39 41 42 43
22 22 22 21 19 17 16 16 16 16 16 17 17 16 16 16 16 16 17 18 20 22 23 23 24 26 27 28 30 32 33 33 33 32 30 28 28 28 28 28 27 28 27 27 27 27 26 26 25 26 24 22 23 24 23 21 21 22 23 24 23 22 22 21 21 23 24 25 26 27 27 28 29 29 29 29 29 30 35 41 41 39 40 42 43
22 22 23 22 21 20 18 18 19 19 19 20 19 18 17 16 16 15 16 18 19 21 22 23 24 26 27 29 30 32 33 35 35 35 34 33 32 31 31 31 31 32 31 30 29 29 29 28 27 26 25 24 21 20 22 23 21 21 22 23 23 22 21 20 20 21 22 23 25 26 27 28 29 29 29 29 29 30 35 39 39 39 41 43 44
21 22 22 22 22 22 20 20 21 21 21 21 20 19 18 16 15 15 15 16 18 19 21 23 25 26 28 29 29 30 32 33 34 35 36 35 35 34 34 34 34 35 35 34 33 33 32 32 31 29 27 27 26 20 17 19 20 20 21 22 22 21 19 17 16 17 18 20 23 25 27 28 30 31 31 30 31 32 34 36 36 38 41 43 44
20 21 21 22 22 23 22 23 23 23 23 23 22 20 19 17 16 15 15 16 16 18 20 22 24 26 27 29 30 30 31 32 33 34 34 35 36 36 36 36 36 36 36 36 37 37 37 37 35 33 31 30 29 24 17 14 14 15 16 17 18 19 17 13 12 13 15 16 18 21 25 27 30 32 32 33 34 34 33 35 36 37 38 41 45
20 20 21 22 22 23 23 25 26 26 26 25 24 22 20 19 18 17 17 17 17 18 19 21 23 25 26 28 29 30 31 31 32 33 34 35 36 36 37 37 36 35 33 34 36 38 39 39 38 36 35 32 29 26 20 13 8 8 7 6 7 8 7 4 6 8 11 11 11 14 18 20 21 23 25 28 31 32 32 33 34 35 37 40 44
20 20 20 21 22 23 24 25 26 28 28 28 27 26 24 22 20 20 20 20 20 20 20 21 22 23 24 26 27 28 29 30 31 32 33 34 35 36 36 35 35 34 32 31 32 34 35 36 36 34 32 30 27 24 18 12 6 3 3 3 1 2 4 4 4 4 4 5 5 6 9 11 11 14 17 19 21 23 25 27 29 32 36 40 41
20 20 20 21 22 23 24 24 26 27 28 30 30 29 27 25 24 24 24 24 24 24 24 24 24 24 25 26 27 28 28 29 30 31 32 34 34 35 35 34 33 33 31 29 28 29 30 32 32 31 29 26 24 20 15 9 4 3 5 5 3 4 5 4 4 4 3 2 3 4 5 6 6 7 10 13 14 15 18 21 24 28 32 37 39
20 20 20 20 21 23 24 25 25 25 27 29 30 30 28 27 26 26 26 27 27 27 27 27 27 27 28 28 29 29 29 30 30 31 32 33 33 34 34 34 33 31 30 28 26 25 26 27 28 28 27 25 23 18 15 12 8 5 6 7 5 5 4 4 4 3 2 2 3 5 5 5 6 6 6 7 9 11 13 14 18 23 28 32 36
19 19 19 19 20 22 24 25 24 24 25 27 29 30 29 27 27 27 28 29 30 30 30 30 30 30 30 30 31 31 31 31 31 31 32 32 32 32 32 33 32 31 29 28 25 23 21 21 22 24 26 26 25 21 19 19 16 11 9 10 9 8 7 6 5 3 2 4 4 3 3 3 3 4 4 5 6 7 8 8 11 17 22 27 32
17 18 19 19 19 21 23 24 24 23 23 25 28 30 29 28 27 28 28 30 31 32 33 33 33 33 33 32 32 32 32 33 33 32 32 32 31 31 31 31 31 30 29 28 27 25 22 20 20 22 24 26 27 26 24 23 21 18 17 16 16 16 13 11 8 6 7 8 8 9 10 9 7 5 2 2 3 3 4 5 7 10 14 20 26
16 17 18 18 18 19 21 22 23 22 22 24 27 29 29 28 28 28 28 30 31 33 35 36 36 36 35 34 33 32 33 33 34 33 32 32 31 30 30 30 30 30 30 29 29 29 28 26 24 23 23 24 26 27 27 25 24 24 23 23 23 24 22 20 17 16 17 17 16 17 17 15 13 11 9 7 6 6 5 5 8 9 9 13 18
15 16 17 18 18 18 19 21 22 22 21 22 24 27 29 28 28 28 28 29 31 33 34 36 37 38 38 37 35 34 33 33 33 32 30 30 30 30 30 30 29 29 30 30 29 30 31 31 31 30 29 29 29 29 29 28 26 25 25 24 23 23 22 22 23 22 21 20 20 20 19 18 19 19 18 19 19 18 15 13 13 15 13 11 12
14 15 16 17 18 18 18 19 21 22 22 21 22 25 27 28 28 28 28 28 29 31 32 34 35 36 37 38 37 35 33 31 29 27 26 26 27 29 30 31 30 28 28 27 28 29 32 34 36 36 35 35 35 33 32 30 28 27 25 24 23 21 21 21 22 21 18 16 16 16 15 15 17 17 17 18 18 17 18 18 19 20 18 16 19
14 15 15 16 17 17 18 19 20 21 22 22 21 22 24 26 27 27 27 28 28 29 30 31 32 34 35 36 36 35 31 29 27 26 26 25 25 26 28 30 30 30 28 27 28 30 33 34 35 35 35 35 36 35 34 33 31 30 29 27 25 23 22 21 21 19 16 14 14 14 13 12 12 11 11 11 10 9 9 10 12 14 16 18 21
15 15 14 14 15 16 18 18 19 20 21 21 21 21 21 22 24 25 26 26 27 27 28 29 30 31 32 34 35 35 33 31 29 28 27 25 24 25 26 27 29 31 31 30 31 34 35 35 35 35 34 34 35 34 34 33 33 32 31 30 29 28 25 23 21 19 17 16 15 15 14 13 13 13 13 12 10 8 7 6 5 5 6 8 10
14 14 13 13 13 14 16 17 18 18 19 19 19 20 20 20 21 22 23 24 25 25 26 27 28 29 30 31 33 35 35 34 32 30 28 26 25 24 24 26 28 30 32 34 36 37 37 36 36 35 34 33 33 32 32 33 32 32 31 31 31 30 29 28 26 24 22 20 19 18 17 15 13 12 13 15 16 15 15 14 13 11 10 10 10
13 13 12 11 11 12 14 15 16 16 16 17 17 17 18 18 19 19 20 21 23 23 24 25 26 27 28 30 31 33 34 34 33 31 29 27 25 24 24 25 27 29 31 34 36 36 35 35 35 35 34 33 31 30 30 30 31 31 31 31 31 30 30 29 29 29 28 26 24 22 21 18 15 13 14 17 20 21 22 22 22 21 21 20 19
11 11 10 9 9 10 11 13 13 13 14 14 14 15 15 16 17 17 17 19 20 22 23 24 24 25 26 27 29 31 32 33 33 32 30 28 25 23 22 23 26 28 30 32 33 32 32 32 33 33 33 32 31 30 29 29 29 29 29 29 29 29 29 29 29 30 30 29 27 25 24 22 19 17 18 20 22 23 23 23 23 23 23 22 21
9 10 9 8 8 8 9 10 11 11 11 12 12 12 13 14 15 14 15 16 18 19 21 22 23 24 25 25 27 28 30 31 32 31 30 29 27 25 23 24 26 27 28 29 29 29 30 30 30 31 32 32 31 29 29 28 28 28 27 27 27 28 28 29 30 30 30 30 29 27 25 24 23 21 21 20 20 20 20 19 19 18 19 19 19
7 8 8 7 6 6 7 8 9 9 9 9 9 10 11 12 12 12 13 14 15 17 18 20 21 22 23 24 24 26 27 29 31 31 30 29 28 28 27 26 25 25 26 27 27 27 28 28 29 30 31 32 32 30 28 27 27 27 26 26 27 28 28 28 28 29 29 29 30 28 27 25 24 23 21 20 18 17 16 15 14 14 14 15 15
8 7 6 6 5 5 5 6 7 7 7 7 6 7 9 10 10 10 11 12 13 14 15 17 18 19 20 22 23 23 25 26 28 29 30 29 28 28 27 25 23 22 23 24 25 25 26 26 27 28 29 30 31 30 29 28 27 26 25 25 26 27 27 27 26 26 25 25 26 27 27 27 26 24 23 21 19 17 15 14 14 14 13 12 12
8 7 5 4 4 3 3 4 5 5 5 4 4 5 7 8 9 9 9 10 12 12 13 14 15 16 18 20 21 21 22 23 25 28 29 29 29 27 25 23 22 22 21 21 21 22 24 24 25 26 26 27 28 28 28 28 28 27 26 24 24 25 26 26 26 26 25 24 24 24 24 25 26 25 24 23 20 18 16 15 14 14 14 13 12
7 6 5 3 3 3 3 2 3 3 3 2 3 5 5 6 7 9 9 10 11 12 11 11 12 14 15 17 19 19 20 21 24 26 28 28 28 27 24 22 21 20 20 20 19 19 21 22 22 23 24 25 25 25 25 26 26 27 26 25 24 24 25 26 27 26 26 25 24 23 22 22 22 22 23 22 21 19 17 16 15 14 13 12 11
7 6 5 4 3 3 3 1 1 1 1 1 1 3 4 4 6 7 8 9 10 11 11 11 11 12 13 15 16 17 18 19 21 23 25 26 27 26 25 23 21 19 18 18 18 18 19 20 20 21 22 22 23 23 23 23 23 24 24 24 24 24 24 24 24 24 23 23 22 22 21 20 19 19 19 19 18 17 16 15 15 13 11 10 9
7 5 4 4 3 2 2 2 2 1 1 1 0 1 2 3 4 5 6 7 8 9 11 11 11 11 12 14 14 15 16 17 18 20 22 24 25 25 24 24 22 19 17 17 16 16 17 18 19 20 20 21 21 22 21 21 20 20 20 20 21 21 21 21 21 21 21 21 21 21 20 19 18 17 16 16 16 15 14 13 12 11 10 9 8
6 5 4 3 1 2 3 3 2 1 1 1 1 2 2 1 3 4 5 5 6 7 9 11 11 11 11 12 13 13 14 15 16 17 19 21 22 23 23 23 23 21 19 17 16 16 16 17 18 19 19 20 20 21 20 20 19 18 17 17 17 17 17 17 17 17 18 18 18 19 19 19 18 16 14 13 13 14 13 12 11 9 8 7 6
6 5 4 2 1 2 3 4 3 2 1 1 0 2 2 2 3 4 5 4 5 6 8 9 10 10 11 12 12 12 13 14 14 14 16 18 19 21 21 22 22 21 20 19 18 16 15 15 16 16 17 18 19 19 20 19 19 18 17 16 16 15 14 13 13 13 14 15 15 15 16 16 16 16 14 13 12 12 12 11 11 10 8 7 5
7 6 4 1 2 5 5 4 3 2 2 1 1 1 3 3 5 6 5 4 5 6 7 9 10 10 11 12 12 12 12 12 12 12 13 15 17 18 19 20 20 20 20 20 19 17 16 14 14 14 15 16 16 17 18 18 18 18 17 17 16 16 15 14 13 13 13 13 13 13 13 13 13 14 13 12 11 10 9 9 8 8 8 8 6
8 7 5 3 4 8 7 4 3 2 2 1 1 2 3 4 5 7 7 5 5 6 8 9 10 10 10 11 12 12 12 12 11 11 12 13 14 15 16 17 18 18 19 19 19 18 16 15 14 14 14 14 15 15 16 16 16 16 16 16 16 15 15 15 14 14 13 13 13 12 12 12 12 13 12 10 9 8 7 6 6 6 6 7 6
9 8 7 5 5 7 6 4 4 4 4 4 4 4 4 3 5 7 7 6 6 7 8 9 10 10 10 10 11 11 11 11 11 11 11 11 12 13 14 15 15 16 17 18 18 18 17 16 15 14 14 14 14 15 15 15 15 15 15 16 15 15 15 14 14 13 13 13 12 12 12 12 11 11 11 9 6 6 5 5 5 5 5 4 4
9 9 8 7 7 6 6 5 5 6 6 6 6 5 5 4 4 6 8 7 6 7 8 9 10 10 10 10 11 11 11 11 11 11 11 11 12 12 13 13 13 14 14 15 16 17 17 16 15 14 14 14 14 14 14 14 15 15 15 15 15 15 15 15 14 14 13 13 12 12 11 11 10 10 9 7 5 4 4 4 5 5 5 4 4
11 10 9 9 9 8 8 7 7 7 7 7 7 7 6 6 5 6 7 8 8 7 8 9 9 9 9 9 11 11 11 11 11 11 11 11 11 12 12 12 12 12 12 13 13 15 16 16 15 13 13 13 14 14 13 13 13 14 14 15 15 15 15 15 15 14 13 13 13 12 12 11 10 9 8 6 4 3 3 4 4 5 5 5 5
13 12 11 11 10 10 10 10 9 9 8 8 8 8 8 7 7 7 8 9 9 8 8 9 8 8 8 9 10 10 11 11 11 11 11 11 11 11 11 12 12 12 12 11 11 12 13 14 14 13 13 13 13 12 12 12 13 14 14 14 14 15 15 15 15 14 14 13 13 13 12 12 11 10 9 7 5 3 3 3 4 4 4 4 4
14 13 12 12 12 11 12 12 12 11 10 10 9 9 9 9 9 9 9 10 10 9 8 7 7 8 8 9 9 10 10 11 11 12 12 12 11 11 11 11 11 11 11 11 11 11 11 11 12 12 13 12 12 12 12 12 13 14 15 15 15 16 15 15 15 15 14 13 13 12 12 12 11 10 9 8 6 5 4 4 5 5 5 5 4
15 14 13 13 13 12 13 13 14 14 13 12 11 11 11 11 11 10 10 10 11 9 8 7 7 8 8 9 9 10 10 11 11 12 12 12 12 11 11 11 11 11 11 11 11 11 11 10 10 10 11 11 11 11 11 12 13 14 15 15 16 16 16 16 16 16 15 15 14 13 12 11 11 10 9 9 8 7 6 6 6 6 6 7 6
Wind_Direction
341 332 335 334 326 312 303 2 20 351 335 321 316 313 308 302 299 300 297 295 293 291 289 289 288 288 290 293 298 301 302 301 299 298 297 297 298 299 300 299 297 295 292 290 292 294 293 287 279 274 273 273 269 264 264 262 258 252 245 242 242 241 240 240 244 250 251 248 248 252 253 246 237 231 228 226 224 222 222 223 222 222 222 223 222
317 322 328 330 329 327 87 62 37 17 10 3 357 352 346 343 337 331 325 319 314 309 305 301 296 293 292 293 296 297 298 299 299 299 299 300 300 298 297 296 297 296 294 293 294 293 291 287 282 277 274 274 271 268 267 266 262 256 249 245 244 242 241 242 244 249 251 248 245 247 249 245 238 233 230 228 226 224 222 222 222 221 221 221 221
320 325 328 328 335 81 81 54 41 32 27 23 17 12 7 3 357 352 349 346 342 337 332 327 320 313 309 306 303 301 300 299 297 296 297 298 299 299 299 298 300 300 296 294 294 294 293 288 283 280 276 272 269 268 267 265 262 258 253 248 244 241 240 240 242 244 246 245 243 243 244 242 238 235 232 231 228 226 225 223 221 221 220 218 220
329 328 331 336 9 82 75 58 47 37 32 30 25 21 15 10 4 1 360 357 355 353 350 346 342 336 330 325 322 319 316 314 312 310 307 302 300 301 301 300 301 302 301 298 295 294 292 290 287 284 280 276 273 270 266 264 262 260 257 251 244 241 240 241 242 242 243 243 241 241 243 243 240 237 235 232 229 229 229 225 222 221 220 218 219
325 332 344 12 63 78 73 64 52 42 35 32 29 25 19 15 11 8 6 3 1 358 356 354 353 350 347 343 340 336 333 331 330 329 325 318 311 304 299 298 298 299 301 303 300 297 294 291 290 287 282 278 276 272 267 264 263 262 259 255 249 244 243 244 244 243 243 244 242 241 242 244 242 239 237 234 231 230 230 228 225 222 219 218 219
324 347 16 61 78 75 70 63 51 41 34 28 26 23 18 15 12 10 10 7 4 2 360 359 358 356 354 351 347 343 341 338 336 334 332 329 323 313 303 297 294 292 296 300 301 300 298 294 291 288 283 277 275 272 265 262 265 265 262 259 254 248 244 243 245 245 245 245 244 241 240 243 243 239 236 235 232 229 227 226 226 225 221 218 218
348 32 63 77 77 71 65 58 47 38 30 24 20 16 13 10 8 8 8 5 2 1 1 359 358 355 352 350 347 345 343 340 338 335 334 333 332 327 318 309 300 292 289 293 297 300 301 298 293 290 285 278 274 271 265 260 262 264 264 262 257 249 244 243 245 247 245 243 242 240 238 241 243 238 234 232 231 230 228 224 223 223 221 220 219
76 77 80 80 76 71 64 55 45 36 30 25 19 14 10 6 4 3 1 359 358 359 358 356 353 351 348 346 345 345 344 342 340 337 335 334 333 331 329 323 315 305 294 290 291 294 297 296 293 292 289 284 278 272 267 263 262 263 264 262 258 253 249 247 247 247 245 242 240 239 237 238 240 237 232 228 225 226 228 227 225 223 220 219 218
98 91 88 83 76 68 58 48 40 34 30 26 22 18 14 11 9 6 3 3 3 3 2 359 356 353 350 348 347 346 347 348 348 345 339 335 332 329 329 326 322 316 307 298 290 287 288 290 290 290 290 288 282 274 268 265 262 263 262 259 256 252 249 249 248 245 243 240 239 238 236 236 237 235 231 228 225 225 228 228 228 227 224 220 218
101 96 89 81 70 60 52 45 40 35 31 30 29 27 24 21 17 14 13 12 11 10 8 5 4 2 360 357 355 353 353 354 354 349 343 339 335 329 326 327 326 323 318 311 299 289 283 283 285 287 287 286 282 275 270 267 264 263 263 260 256 251 248 248 248 246 242 240 240 238 235 235 236 235 233 232 230 228 229 229 227 227 224 220 217
100 94 87 80 69 60 55 50 45 41 38 38 37 34 31 27 23 20 19 18 17 15 13 10 9 7 5 3 2 0 0 359 354 349 345 343 340 335 331 331 332 330 327 322 313 301 290 283 282 283 283 284 282 275 270 267 266 264 265 266 261 254 249 247 248 248 245 242 241 239 236 235 236 237 236 235 233 231 232 231 228 226 223 218 216
94 92 89 83 74 65 59 54 50 48 45 43 40 38 34 31 28 25 23 22 21 19 18 17 15 12 9 6 4 3 2 360 356 353 350 348 345 341 338 336 335 332 330 327 321 314 305 295 288 282 279 279 279 276 269 266 265 264 265 266 264 258 251 247 247 248 247 246 243 241 240 239 239 239 237 235 234 234 233 232 230 229 226 222 218
93 93 92 84 77 70 63 59 56 52 48 45 43 41 38 35 32 29 27 25 23 23 23 21 20 18 15 12 9 5 2 360 359 357 355 354 352 346 341 339 338 335 334 332 327 322 315 307 300 292 284 278 276 275 270 265 264 264 264 264 264 262 256 251 249 247 247 248 248 247 246 244 242 242 240 239 238 237 234 232 231 230 230 228 224
91 90 88 83 78 74 67 62 59 54 51 49 45 44 41 38 35 32 28 26 25 25 25 24 23 21 19 17 15 11 7 4 1 359 359 358 357 353 349 345 342 340 339 339 336 331 325 319 311 303 295 289 283 277 269 264 262 262 263 265 263 260 255 252 251 251 248 247 248 249 249 247 247 246 245 244 242 240 238 237 235 233 233 231 227
89 87 86 82 78 74 68 63 59 56 54 51 49 47 45 41 38 34 30 29 28 28 27 26 25 24 22 21 19 16 15 11 6 4 3 2 2 2 1 357 353 349 348 347 346 341 335 330 322 311 302 296 292 285 271 262 260 261 263 265 264 261 258 256 252 251 251 249 249 250 249 250 251 250 249 248 246 245 245 244 241 237 233 230 226
86 84 83 81 77 72 68 64 61 59 56 55 53 51 49 45 43 38 34 33 32 31 30 28 28 27 25 24 22 21 19 16 12 8 5 4 5 8 9 8 4 0 358 356 353 349 342 336 333 326 313 299 292 288 279 265 260 261 265 266 266 265 264 262 258 254 252 251 251 253 252 251 250 248 248 248 248 248 246 241 237 234 231 227 223
84 82 80 78 75 72 69 65 64 61 58 57 55 53 51 49 46 42 38 37 35 34 33 31 29 28 27 26 25 24 23 20 17 13 9 7 7 9 12 13 11 9 6 3 1 358 353 347 341 336 329 315 297 287 282 274 265 263 266 269 269 268 265 264 264 262 259 254 252 253 253 251 249 246 245 245 246 247 242 236 234 233 231 228 224
83 80 78 76 73 72 71 68 66 63 60 58 57 54 53 50 48 45 42 40 40 38 36 34 32 30 29 29 28 27 26 24 21 18 15 12 10 9 10 11 12 11 8 7 6 4 1 358 352 344 341 339 326 298 280 274 269 265 267 269 271 272 271 270 269 269 268 262 255 252 251 250 248 245 243 242 241 242 241 239 238 236 233 231 228
83 80 78 75 72 71 72 71 69 66 63 62 60 58 57 54 51 49 46 45 44 41 39 37 35 34 32 30 29 28 27 26 23 21 20 18 16 14 12 12 12 10 8 7 7 7 6 3 359 353 347 343 340 328 296 276 270 266 265 266 267 268 268 271 275 276 274 269 261 254 251 250 249 246 242 239 237 237 239 241 242 240 236 234 229
88 84 80 76 72 71 71 71 69 66 64 63 62 61 60 58 55 53 51 49 47 44 41 39 38 37 35 32 30 27 26 26 24 22 21 20 19 18 16 15 14 11 9 7 7 9 9 6 3 359 353 346 342 341 333 307 287 279 274 271 271 271 268 274 287 288 280 274 267 259 252 247 245 244 241 237 236 236 236 237 240 241 240 236 229
93 88 83 79 74 71 71 69 67 66 64 63 62 61 60 60 58 56 54 53 51 48 45 43 40 38 36 34 31 28 27 26 25 23 22 21 19 18 18 17 14 11 11 11 10 11 11 10 7 1 357 353 347 344 344 337 319 308 306 300 284 276 275 302 323 307 287 274 268 264 258 249 243 243 240 235 233 232 231 233 236 238 240 237 231
96 91 86 81 75 72 70 68 67 66 63 60 59 57 58 60 60 58 55 53 51 49 47 45 43 41 38 35 33 29 27 25 24 24 23 23 22 20 19 17 14 11 11 13 15 15 15 15 13 6 0 358 354 349 345 341 337 356 24 30 44 94 101 94 58 18 335 295 284 286 282 273 262 251 241 234 230 230 231 233 234 235 236 236 235
96 92 88 83 77 72 69 68 67 65 62 58 56 54 55 57 58 57 54 52 49 47 45 44 42 41 39 37 34 31 28 25 23 22 22 22 22 22 22 20 17 14 13 13 15 18 19 19 18 13 8 7 5 359 355 354 359 61 89 95 111 113 113 119 105 75 46 356 349 351 337 327 313 283 256 244 240 240 240 236 232 232 233 234 235
95 91 88 84 79 74 69 67 66 64 62 58 55 54 54 54 54 54 52 51 50 48 45 42 39 38 37 35 34 31 28 27 25 23 22 21 21 22 22 22 21 19 17 16 15 16 18 20 21 19 19 20 19 15 17 29 45 76 98 106 122 133 134 133 125 117 111 80 45 20 6 359 349 336 311 276 256 249 247 240 229 226 229 233 234
95 91 87 83 80 75 70 67 65 63 62 59 56 55 53 52 52 52 50 49 49 48 46 42 39 37 35 33 31 29 27 26 25 23 22 21 21 22 22 23 23 23 23 23 21 18 16 16 18 21 24 28 30 29 32 39 46 60 83 99 111 122 127 127 123 121 102 87 80 69 60 46 18 356 335 309 285 265 255 245 227 217 218 223 229
97 91 87 83 79 75 70 67 64 63 62 61 58 56 54 53 53 52 50 49 48 46 45 43 40 38 35 32 29 27 25 24 24 23 22 20 20 21 22 23 23 24 26 29 28 27 24 22 22 24 28 32 37 41 45 47 49 53 61 73 84 92 99 106 107 101 96 94 95 97 96 93 89 86 79 295 278 250 226 215 209 204 204 210 215
102 92 87 82 78 75 72 68 64 63 63 62 60 58 56 54 54 54 52 51 49 46 44 41 39 38 36 33 30 27 26 25 23 23 22 20 20 21 22 22 22 23 27 30 32 33 34 35 35 36 36 38 41 44 46 48 51 54 54 56 61 68 76 84 90 92 94 96 97 98 98 100 100 97 98 101 101 102 117 151 160 150 160 193 199
108 97 89 82 78 76 75 72 67 63 63 62 61 59 57 55 54 54 54 52 51 49 46 42 39 37 35 34 32 29 27 25 24 23 22 21 21 22 23 24 22 22 26 30 32 35 37 38 39 40 41 43 44 44 45 45 50 56 59 60 59 60 65 71 77 80 83 86 90 93 95 97 97 95 96 96 93 88 87 93 104 110 121 149 152
115 103 93 84 80 79 77 74 70 65 62 61 61 60 58 57 55 55 54 53 52 50 48 44 41 38 36 34 33 31 29 26 24 23 24 25 25 26 28 28 26 25 27 29 31 35 38 39 39 40 42 44 45 46 47 48 50 53 56 60 64 65 66 67 69 72 75 78 80 81 80 83 85 86 90 91 90 90 90 89 88 89 95 107 108
121 111 100 91 84 79 76 74 71 68 64 61 60 61 59 58 56 55 53 52 51 50 48 45 41 39 37 35 34 34 32 29 26 25 26 27 29 31 33 33 32 31 30 29 32 37 41 42 42 41 43 46 47 47 47 49 51 52 52 53 56 60 65 68 69 71 73 76 77 76 74 74 72 70 72 75 76 83 89 90 91 89 88 92 96
121 114 107 100 89 79 75 72 70 68 66 62 60 60 59 58 56 54 52 51 50 49 48 45 42 40 38 36 35 34 34 32 30 29 28 28 29 32 36 37 37 35 33 33 36 39 41 42 42 42 42 44 46 47 47 48 49 50 51 51 51 52 56 60 63 64 65 66 67 66 64 64 64 61 59 59 59 61 65 72 86 100 105 108 109
117 113 111 106 94 80 74 70 68 68 67 64 60 59 58 56 55 53 51 49 48 48 47 45 43 41 38 35 34 32 32 32 31 31 31 31 32 33 36 39 39 38 38 39 40 41 41 41 41 40 41 43 43 43 44 46 48 49 50 51 52 52 53 54 55 57 57 57 57 56 55 53 54 58 62 67 71 74 76 78 81 85 96 109 122
113 111 112 109 98 85 75 69 66 66 67 65 62 58 56 54 52 49 48 47 46 45 44 43 42 40 38 35 33 32 30 30 30 31 32 33 34 35 37 41 41 40 40 41 41 41 41 41 40 40 41 42 42 42 42 43 45 47 48 49 50 51 51 51 52 53 54 54 54 56 56 55 57 65 74 79 83 84 82 83 84 85 87 91 94
109 105 106 106 100 88 75 68 65 64 67 67 63 57 53 51 48 45 44 43 43 42 41 40 40 38 36 34 33 32 30 28 29 29 30 31 33 34 37 41 44 44 42 40 40 40 41 41 40 39 39 40 42 42 42 42 42 44 47 48 49 50 50 51 52 54 54 55 55 55 56 57 62 72 80 84 87 87 85 83 82 81 83 85 86
117 104 101 103 99 87 77 72 66 64 67 68 63 55 49 45 44 42 39 37 38 37 36 37 36 35 34 32 31 30 29 28 28 29 29 29 30 31 33 37 41 44 43 41 39 40 40 40 39 38 37 38 39 40 40 41 41 42 44 46 48 49 50 52 53 53 53 54 54 55 56 56 60 70 81 87 88 86 84 80 77 76 77 81 84
134 115 107 107 103 93 86 77 68 67 70 67 57 50 43 39 39 39 36 33 31 29 29 31 31 31 31 30 29 28 28 27 27 28 28 28 28 29 33 37 38 39 39 39 39 39 39 40 39 38 38 38 38 38 39 39 38 39 40 43 45 47 47 49 50 50 50 50 51 52 54 56 58 63 72 80 84 85 87 88 85 83 82 82 83
144 133 122 117 113 108 99 83 71 73 76 66 48 39 36 34 35 36 35 31 27 22 22 23 24 25 27 27 27 26 26 25 26 27 28 28 27 29 34 38 38 36 35 35 35 36 36 36 36 36 37 38 38 38 39 39 38 37 38 40 43 46 47 47 47 47 48 48 49 49 51 53 55 57 62 68 73 79 88 95 98 97 96 93 91
149 148 142 132 125 126 116 89 75 80 84 68 41 28 27 32 38 40 37 32 27 21 16 15 16 18 20 23 24 24 22 22 24 26 27 27 27 28 32 36 37 37 34 33 32 31 31 31 31 31 33 36 37 38 38 38 37 37 37 39 41 43 45 46 45 46 46 47 48 49 50 52 54 54 56 59 62 68 77 87 95 99 97 96 98
159 163 165 161 152 154 151 114 88 97 107 72 32 27 31 41 48 49 45 40 33 26 19 12 9 11 14 18 21 22 20 18 20 23 25 26 27 27 28 31 34 36 36 36 34 29 26 25 26 28 30 32 34 35 35 35 35 36 37 38 39 40 41 41 42 43 44 45 47 47 48 50 53 54 54 55 56 59 64 69 78 86 91 91 94
174 174 174 173 170 170 174 176 148 153 169 177 29 38 48 55 54 50 48 42 34 30 27 20 11 8 11 13 16 19 19 18 18 20 22 24 26 27 26 26 28 30 33 35 35 29 23 22 23 24 26 29 30 30 29 30 32 33 34 36 36 38 39 40 39 39 39 41 43 44 45 46 49 53 57 58 57 58 60 62 66 74 81 86 90
182 184 180 171 171 187 202 206 195 179 187 202 244 25 43 49 42 37 36 32 26 24 26 25 20 14 12 12 14 17 19 18 17 17 19 22 25 27 26 25 25 25 27 30 31 29 24 20 19 20 22 24 26 25 23 23 25 26 29 31 32 33 35 38 39 38 35 34 35 37 39 40 41 47 55 58 58 60 62 62 66 70 75 82 88
182 187 189 183 200 232 218 195 170 152 208 224 260 319 340 4 9 8 9 7 5 8 14 19 22 20 15 13 14 15 16 16 16 15 16 20 24 27 27 25 24 24 25 25 26 27 24 19 16 16 16 18 21 22 21 22 23 23 23 25 26 26 28 31 35 36 35 33 31 30 32 33 33 36 42 48 52 54 54 55 60 64 66 74 80
183 185 189 204 247 215 193 179 165 153 158 165 318 338 339 331 332 341 346 342 341 350 1 8 15 17 13 11 14 13 10 11 14 14 13 15 21 25 27 26 24 24 24 22 22 24 24 19 16 16 15 15 19 21 23 25 27 27 27 27 26 25 25 24 25 26 28 28 26 23 23 25 27 28 29 31 34 38 42 46 53 56 57 64 72
190 190 194 219 183 169 166 166 171 172 154 130 109 343 347 347 337 333 331 325 325 337 349 358 6 8 4 4 7 7 2 3 8 10 8 9 14 20 23 25 24 24 23 22 21 22 24 23 21 19 18 19 22 25 25 26 28 29 30 29 28 27 28 26 22 19 18 17 14 12 11 11 13 16 20 22 23 25 30 38 47 51 52 55 61
199 198 207 213 176 167 168 174 191 217 249 252 239 286 323 346 351 346 336 320 315 328 340 349 356 358 356 356 358 357 354 355 359 360 358 1 7 12 17 21 23 23 23 22 21 20 20 20 21 22 21 22 25 26 24 24 24 24 24 23 22 21 21 20 18 15 13 8 5 3 2 0 359 2 7 14 17 19 23 31 38 40 42 45 48
211 209 216 218 195 182 188 205 223 243 266 271 261 269 292 320 351 356 349 328 311 317 330 340 346 347 348 349 349 349 349 350 350 350 348 348 353 360 6 12 18 20 21 22 22 20 16 14 15 18 18 19 21 22 19 18 19 18 17 17 15 13 11 9 8 6 4 1 359 358 356 353 353 358 2 6 7 5 6 9 12 11 11 20 33
222 220 222 228 224 211 207 216 227 239 251 256 253 259 273 294 327 348 350 340 321 313 320 332 340 343 345 346 345 347 349 348 344 343 342 339 340 345 350 357 7 14 17 20 22 20 16 13 13 14 12 11 13 15 16 16 16 16 15 15 14 11 9 8 5 3 3 2 1 360 357 355 354 359 5 10 8 358 348 342 341 341 336 329 331
229 225 223 230 236 232 226 228 235 240 243 243 244 251 262 274 294 319 334 341 338 328 323 329 338 343 346 347 346 347 349 349 346 344 341 336 335 335 336 340 350 1 8 14 17 16 15 14 14 14 12 8 7 9 12 14 14 15 15 15 13 11 11 10 9 8 7 7 7 6 5 2 358 358 4 11 12 1 342 331 330 331 328 317 306
230 227 225 230 240 245 245 243 243 245 246 245 248 254 260 266 276 292 308 323 333 335 330 329 335 341 345 346 345 345 346 347 348 347 345 341 337 332 330 330 334 341 350 359 5 8 10 12 13 14 13 11 8 9 13 16 17 16 16 16 14 13 12 13 12 11 11 11 12 11 9 7 3 1 0 1 1 355 336 312 307 317 325 322 305
230 229 232 237 244 251 255 252 250 250 252 253 257 261 263 265 270 279 291 303 314 322 325 325 328 334 337 337 337 338 338 338 339 342 344 345 342 337 331 327 326 328 333 340 347 353 357 0 4 7 10 11 12 14 18 21 21 20 19 18 18 17 17 16 14 14 13 12 12 12 12 11 11 9 5 359 354 349 338 316 301 294 297 303 297
232 234 238 241 244 248 253 253 253 255 258 261 265 267 269 271 273 277 286 295 301 306 310 312 318 327 332 333 333 330 326 325 326 330 335 339 340 339 336 330 325 323 324 325 329 335 340 343 347 352 357 3 8 10 12 15 14 13 14 14 15 16 17 17 16 15 14 13 11 11 11 11 12 14 13 8 359 351 343 334 323 307 294 290 283